Terug naar catalogus

TIANQI 16

ActiefCommunicatieLEO
NORAD 64058·PAYLOAD·🇨🇳 China

Gelanceerd May 19, 2025 vanaf Yellow Sea Launch Area

Loading…

Volgende Passages (komende 24 uur)

TLE

VersSource: Space-Track

Epoch: Sep 14, 2026, 16:00 UTC

1 64058U 25105A   26257.66735324  .00000074  00000-0  13897-3 0  9996
2 64058  44.9858 344.2541 0009561  85.7864 274.4061 13.99177825 67723

Volg TIANQI 16 in realtime met AllMySat

Download on the App Store